This is the latest recevied weather packets stored in our database for station/object K7SKM. If no packets are shown the sender has not sent any weather packets the latest 10 day(s).
| Time | Temp. | Humidity | Pressure | Rain* | Wind** | Luminosity | Snow |
|---|---|---|---|---|---|---|---|
| 1777694595 | 17.78° C | 55% | 1019.8 hPa | 0 mm | - | 0 W/m² | - |
| 1777694291 | 17.78° C | 56% | 1019.7 hPa | 0 mm | - | 0 W/m² | - |
| 1777693988 | 18.33° C | 56% | 1019.6 hPa | 0 mm | - | 0 W/m² | - |
| 1777693685 | 18.33° C | 54% | 1019.5 hPa | 0 mm | - | 0 W/m² | - |
| 1777693383 | 18.33° C | 53% | 1019.6 hPa | 0 mm | - | 0 W/m² | - |
| 1777693081 | 18.89° C | 54% | 1019.6 hPa | 0 mm | - | 0 W/m² | - |
| 1777692778 | 18.89° C | 52% | 1019.5 hPa | 0 mm | - | 0 W/m² | - |
| 1777692475 | 19.44° C | 51% | 1019.5 hPa | 0 mm | - | 0 W/m² | - |
| 1777692171 | 19.44° C | 49% | 1019.1 hPa | 0 mm | - | 0 W/m² | - |
| 1777691869 | 19.44° C | 49% | 1019.1 hPa | 0 mm | - | 0 W/m² | - |
| 1777691567 | 20° C | 49% | 1019.1 hPa | 0 mm | - | 0 W/m² | - |
| 1777691265 | 20° C | 48% | 1019.1 hPa | 0 mm | - | 0 W/m² | - |
| 1777690963 | 20° C | 47% | 1019.1 hPa | 0 mm | - | 2 W/m² | - |
| 1777690660 | 20° C | 47% | 1018.9 hPa | 0 mm | - | 5 W/m² | - |
| 1777690358 | 20° C | 46% | 1019 hPa | 0 mm | - | 6 W/m² | - |
| 1777690055 | 20.56° C | 45% | 1019 hPa | 0 mm | - | 8 W/m² | - |
| 1777689753 | 20.56° C | 46% | 1018.9 hPa | 0 mm | - | 12 W/m² | - |
| 1777689451 | 20.56° C | 46% | 1019.1 hPa | 0 mm | - | 17 W/m² | - |
| 1777689148 | 20.56° C | 45% | 1018.9 hPa | 0 mm | - | 22 W/m² | - |
| 1777688846 | 20.56° C | 45% | 1018.8 hPa | 0 mm | - | 23 W/m² | - |
| 1777688542 | 20.56° C | 45% | 1018.7 hPa | 0 mm | - | 31 W/m² | - |
| 1777688239 | 21.11° C | 47% | 1018.8 hPa | 0 mm | - | 42 W/m² | - |
| 1777687937 | 21.11° C | 49% | 1018.7 hPa | 0 mm | - | 44 W/m² | - |
| 1777687634 | 21.11° C | 47% | 1018.4 hPa | 0 mm | - | 44 W/m² | - |
| 1777687330 | 21.11° C | 44% | 1018.5 hPa | 0 mm | - | 51 W/m² | - |
* Rain latest hour (hover to see other rain measurements)
** Current wind speed in m/s (hover to see current wind gust speed)